Weather in Svetlitsy

Russia / Novgorod Oblast     58°00′24″N   30°21′29″E
temp.,
°C
wind,
m/s
gust,
m/s
humid.,
%
clouds,
%
prec.,
mm/h
press.,
hPa
HPBL,
m
3 march, wed
wed300:000wnw4118955 0.0 1020402
03:00−1wnw4109330 0.0 1021422
06:00−1w4119340 0.0 1019465
09:000w5118765 0.0 1019618
12:00+2w5107799 0.0 1018825
15:00+4w6116675 0.0 10151310
18:00+3wsw4128485 0.0 1011759
21:00+3w6158489 0.0 1008744
4 march, thu
thu400:00+2w61387100 0.0 1005907
03:00+1wnw51197100 0.2 1006666
06:00−2nw398289 0.1 1004360
09:00−2nw268394 0.1 1004381
12:000nw246429 0.0 1003748
15:00+1nw355815 0.0 10031269
18:00−1nw487452 0.3 1004747
21:00−4nnw597338 0.3 1005908
5 march, fri
fri500:00−4nnw487081 0.0 1006842
03:00−5nw377140 0.0 1008853
06:00−5nw37760 0.0 1009835
09:00−6nw48665 0.0 1010891
12:00−4nw46540 0.0 10111258
15:00−4nw455245 0.1 10131451
18:00−4nnw356096 0.1 10131071
21:00−6n367798 0.2 1016773
6 march, sat
sat600:00−7n357395 0.1 1018756
03:00−7wnw258047 0.1 1019317
06:00−8wnw267831 0.0 1019372
09:00−7w378540 0.0 1019368
12:00−4w476652 0.0 1018840
15:00−2wsw6105463 0.0 10151578
18:00−3sw71368100 0.0 10101346
21:00−3wsw91889100 1.2 10051515
7 march, sun
sun700:00−2wsw91887100 0.4 10001284
03:00−1wsw81795100 2.0 9951234
06:00−6wnw6144883 2.2 9951337
09:00−6w5156662 2.3 9951605
12:00−6wnw91466100 2.4 9941943
15:00−5wnw8157494 2.5 9951850
18:00−6wnw81686100 0.3 9961490
21:00−7nw61279100 0.8 1000859